This is the latest recevied weather packets stored in our database for station/object K4VEB. If no packets are shown the sender has not sent any weather packets the latest 10 day(s).
| Time | Temp. | Humidity | Pressure | Rain* | Wind** | Luminosity | Snow |
|---|---|---|---|---|---|---|---|
| 1777735892 | 28.89° C | 65% | 1010.2 hPa | 0 mm | - | 362 W/m² | - |
| 1777735589 | 28.89° C | 64% | 1010.1 hPa | 0 mm | - | 352 W/m² | - |
| 1777735287 | 28.33° C | 67% | 1010.3 hPa | 0 mm | - | 545 W/m² | - |
| 1777734984 | 27.78° C | 68% | 1010.2 hPa | 0 mm | - | 572 W/m² | - |
| 1777734681 | 27.22° C | 70% | 1010.2 hPa | 0 mm | - | 347 W/m² | - |
| 1777734379 | 26.67° C | 70% | 1010.5 hPa | 0 mm | - | 298 W/m² | - |
| 1777734075 | 26.67° C | 71% | 1010.3 hPa | 0 mm | - | 260 W/m² | - |
| 1777733771 | 26.11° C | 72% | 1010.5 hPa | 0 mm | - | 253 W/m² | - |
| 1777733468 | 26.11° C | 73% | 1010.6 hPa | 0 mm | - | 225 W/m² | - |
| 1777733164 | 25.56° C | 75% | 1010.5 hPa | 0 mm | - | 207 W/m² | - |
| 1777732861 | 25.56° C | 76% | 1010.6 hPa | 0 mm | - | 233 W/m² | - |
| 1777732557 | 25.56° C | 77% | 1010.5 hPa | 0 mm | - | 223 W/m² | - |
| 1777732255 | 25° C | 77% | 1010.6 hPa | 0 mm | - | 199 W/m² | - |
| 1777731952 | 25° C | 78% | 1010.6 hPa | 0 mm | - | 180 W/m² | - |
| 1777731648 | 25° C | 79% | 1010.4 hPa | 0 mm | - | 188 W/m² | - |
| 1777731346 | 24.44° C | 79% | 1010.5 hPa | 0 mm | - | 206 W/m² | - |
| 1777731044 | 24.44° C | 81% | 1010.6 hPa | 0 mm | - | 172 W/m² | - |
| 1777730743 | 24.44° C | 82% | 1010.7 hPa | 0 mm | - | 150 W/m² | - |
| 1777730438 | 23.89° C | 83% | 1010.9 hPa | 0 mm | - | 146 W/m² | - |
| 1777730134 | 23.89° C | 85% | 1010.8 hPa | 0 mm | - | 125 W/m² | - |
| 1777729831 | 23.89° C | 87% | 1010.7 hPa | 0 mm | - | 102 W/m² | - |
| 1777729528 | 23.33° C | 88% | 1010.8 hPa | 0 mm | - | 80 W/m² | - |
| 1777729225 | 23.33° C | 88% | 1010.7 hPa | 0 mm | - | 86 W/m² | - |
| 1777728921 | 23.33° C | 89% | 1011 hPa | 0 mm | - | 87 W/m² | - |
| 1777728618 | 23.33° C | 89% | 1011 hPa | 0 mm | - | 92 W/m² | - |
* Rain latest hour (hover to see other rain measurements)
** Current wind speed in m/s (hover to see current wind gust speed)